User: anonymous   Login
Location: Fort Wayne
(41.1310°N, 85.1290°W)
Time: 22:58:00
(UTC-05:00)
Language:

COSMOS 2428 - Orbit

View from above orbital plane
View from above orbital plane
View from above satellite
View from above satellite

Ground track
Ground track

The orbit data is extracted from the following two-line orbital elements,

1 31792U 07029A   15064.78130198  .00000105  00000-0  82382-4 0  9996
2 31792 070.9860 001.6532 0006132 119.5758 293.2114 14.12536524396259
Epoch (UTC): 05 March 2015 18:45:04
Eccentricity: 0.0006132
inclination: 70.9860°
perigee height: 846 km
apogee height: 855 km
right ascension of ascending node: 1.6532°
argument of perigee: 119.5758°
revolutions per day: 14.12536524
mean anomaly at epoch: 293.2114°
orbit number at epoch: 39625

The dashed part of the orbit path shows where the satellite is in the earth's shadow,  

DLR